Weather History for Meadville, PA

Change the Weather History Date:

Friday, April 19, 2013

  Actual Average Record
Temperature  
Mean Temperature 55 °F -  
Max Temperature 71 °F 60 °F 88 °F (1976)
Min Temperature 39 °F 35 °F 22 °F (1953)
Degree Days  
Heating Degree Days 10    
Growing Degree Days 5 (Base 50)    
Moisture  
Dew Point 44 °F    
Average Humidity 71    
Maximum Humidity 93    
Minimum Humidity 51    
Precipitation  
Precipitation 0.36 in - - ()
Sea Level Pressure  
Sea Level Pressure 29.59 in    
Wind  
Wind Speed 12 mph (SW)    
Max Wind Speed 22 mph    
Max Gust Speed 34 mph    
Visibility 7 miles    
Events Fog , Rain    
Averages and records for this station are not official NWS values.
T = Trace of Precipitation, MM = Missing Value Source: NWS Daily Summary

Daily Weather History Graph

Daily Weather History Graph

Search for Another Location

Airport:

Trip Planner

Search our weather history database for the weather conditions in past years. The results will help you decide how hot, cold, wet, or windy it might be!

Date:

Astronomy

Apr. 19, 2013 Rise Set
Actual Time 6:34 AM EDT 8:06 PM EDT
Civil Twilight 6:05 AM EDT 8:35 PM EDT
Nautical Twilight 5:30 AM EDT 9:10 PM EDT
Astronomical Twilight 4:52 AM EDT 9:48 PM EDT
Moon 1:44 PM EDT (4/19) 2:54 AM EDT (4/19)
Length of Visible Light 14h 30m
Length of Day
13h 31m
First Quarter, 61% of the Moon is Illuminated
Apr 19
First Quarter
Apr 25
Full
May 2
Last Quarter
May 9
New
May 18
First Quarter

Hourly Weather History & Observations

Time (EDT) Temp. Windchill Dew Point Humidity Pressure Visibility Wind Dir Wind Speed Gust Speed Precip Events Conditions
12:53 AM 71.1 °F - 52.0 °F 51% 29.69 in 10.0 mi South 10.4 mph 16.1 mph N/A   Overcast
1:53 AM 70.0 °F - 51.1 °F 51% 29.66 in 10.0 mi South 9.2 mph 17.3 mph N/A   Clear
2:53 AM 69.1 °F - 51.1 °F 53% 29.63 in 10.0 mi South 9.2 mph - N/A   Clear
3:53 AM 68.0 °F - 51.1 °F 55% 29.60 in 10.0 mi SSE 9.2 mph 19.6 mph N/A   Clear
4:53 AM 66.9 °F - 51.1 °F 57% 29.58 in 10.0 mi South 9.2 mph - N/A   Clear
5:53 AM 68.0 °F - 51.1 °F 55% 29.55 in 10.0 mi South 12.7 mph 23.0 mph N/A   Clear
6:53 AM 68.0 °F - 52.0 °F 56% 29.52 in 10.0 mi SSE 10.4 mph 21.9 mph N/A   Clear
7:53 AM 68.0 °F - 52.0 °F 56% 29.51 in 10.0 mi South 10.4 mph 21.9 mph 0.00 in   Mostly Cloudy
8:53 AM 68.0 °F - 53.1 °F 59% 29.48 in 10.0 mi South 15.0 mph 24.2 mph N/A   Overcast
9:53 AM 64.9 °F - 55.9 °F 73% 29.46 in 2.5 mi SSE 8.1 mph 21.9 mph 0.03 in Rain Light Rain
10:17 AM 62.6 °F - 57.2 °F 82% 29.47 in 5.0 mi SSE 8.1 mph 17.3 mph 0.03 in Rain Light Rain
10:53 AM 64.9 °F - 55.9 °F 73% 29.43 in 10.0 mi South 10.4 mph 21.9 mph 0.03 in   Overcast
11:53 AM 64.9 °F - 57.0 °F 75% 29.43 in 10.0 mi South 15.0 mph 31.1 mph N/A   Unknown
12:11 PM 55.4 °F - 51.8 °F 88% 29.47 in 1.5 mi WNW 17.3 mph 34.5 mph 0.03 in Rain Heavy Rain
12:14 PM 51.8 °F - 48.2 °F 88% 29.50 in 0.8 mi West 16.1 mph 34.5 mph 0.06 in Rain Heavy Rain
12:19 PM 50.0 °F - 46.4 °F 87% 29.50 in 0.2 mi West 16.1 mph 33.4 mph 0.15 in Fog , Rain Heavy Rain
12:26 PM 48.2 °F - 46.4 °F 93% 29.52 in 0.5 mi West 15.0 mph 24.2 mph 0.19 in Fog , Rain Rain
12:35 PM 48.2 °F - 46.4 °F 93% 29.53 in 1.8 mi West 13.8 mph 24.2 mph 0.21 in Rain Light Rain
12:44 PM 48.2 °F - 46.4 °F 93% 29.53 in 2.5 mi West 13.8 mph 24.2 mph 0.23 in Rain Rain
12:53 PM 48.0 °F - 46.0 °F 93% 29.53 in 5.0 mi West 12.7 mph 21.9 mph 0.23 in Rain Light Rain
1:04 PM 48.2 °F - 46.4 °F 93% 29.55 in 1.8 mi WSW 11.5 mph 20.7 mph 0.03 in Rain Rain
1:24 PM 48.2 °F - 44.6 °F 87% 29.56 in 3.0 mi West 11.5 mph 18.4 mph 0.06 in Rain Light Rain
1:53 PM 46.9 °F - 44.1 °F 90% 29.56 in 2.5 mi West 13.8 mph 21.9 mph 0.07 in Rain Light Rain
2:05 PM 46.4 °F 40.4 °F 42.8 °F 87% 29.58 in 4.0 mi West 13.8 mph 20.7 mph 0.00 in Rain Light Rain
2:53 PM 45.0 °F 37.6 °F 41.0 °F 86% 29.61 in 10.0 mi WSW 17.3 mph 24.2 mph 0.00 in   Overcast
3:38 PM 46.4 °F 39.8 °F 37.4 °F 71% 29.62 in 10.0 mi SW 16.1 mph 31.1 mph N/A   Overcast
3:53 PM 46.0 °F 38.8 °F 37.9 °F 73% 29.63 in 10.0 mi WSW 18.4 mph 25.3 mph N/A   Overcast
4:31 PM 46.4 °F 39.5 °F 33.8 °F 62% 29.65 in 10.0 mi WSW 17.3 mph 27.6 mph N/A   Mostly Cloudy
4:53 PM 46.0 °F 39.6 °F 34.0 °F 63% 29.66 in 10.0 mi WSW 15.0 mph 25.3 mph N/A   Mostly Cloudy
5:53 PM 45.0 °F 39.7 °F 33.1 °F 63% 29.71 in 10.0 mi WSW 10.4 mph 26.5 mph N/A   Overcast
6:53 PM 45.0 °F 38.9 °F 30.9 °F 58% 29.71 in 10.0 mi WSW 12.7 mph 27.6 mph N/A   Overcast
7:53 PM 42.1 °F 32.8 °F 28.9 °F 60% 29.74 in 10.0 mi WSW 21.9 mph 32.2 mph N/A   Overcast
8:53 PM 41.0 °F 32.5 °F 28.9 °F 62% 29.77 in 10.0 mi West 17.3 mph 26.5 mph N/A   Overcast
9:53 PM 41.0 °F 33.1 °F 28.9 °F 62% 29.78 in 10.0 mi WSW 15.0 mph 23.0 mph N/A   Overcast
10:53 PM 39.9 °F 30.8 °F 27.0 °F 60% 29.80 in 10.0 mi WSW 18.4 mph 25.3 mph N/A   Overcast
11:53 PM 39.0 °F 31.0 °F 27.0 °F 62% 29.81 in 10.0 mi WSW 13.8 mph - N/A   Overcast